sat.trackr.live / text

‹ back to catalog

UNKNOWN

NORAD 81405

UNKNOWN UNKNOWN UNKNOWN

§ Identity

Operator
Country
Launch date
Launch site
Launch vehicle
Mass (kg)
RCS (m²)

External: N2YO · Heavens-Above

§ Orbital elements

Epoch: 2026-05-23T21:35:34.009152Z

Period
103.64 min
Inclination
99.4531°
Eccentricity
0.0161426
Mean motion
13.89362769 rev/d
Perigee alt
812.9 km
Apogee alt
1,048.9 km
Semi-major
7,309.0 km
B*
8.5798e-4
RAAN
199.5989°
Arg perigee
149.7271°
Mean anomaly
211.3333°
Rev number
58,431

§ Raw data

UNKNOWN1 81405U          26143.89969918  .00001116  00000+0  85798-3 0  99912 81405  99.4531 199.5989 0161426 149.7271 211.3333 13.89362769584313

JSON: /api/v1/satellites/81405 · /tle

For live sub-satellite position, see the globe view (requires WebGL).

§ Visibility from observer

Set your observer location to see the next 7 days of passes ≥ 10°. The values pass through the URL so the page stays shareable.

No JS? Fill the form by hand. The geolocation button needs JavaScript.